STARLINK-34101, 63812

Orbit data source: Space-Track

STARLINK-34101, 63812 is a payload satellite owned by SpaceX/Seattle (US) in LEO that was launched on Sun, 04 May 2025 UTC via an FALCON 9 launch vehicle from the Air Force Eastern Test Range (AFETR). Payload-class satellites include a variety of spacecraft equipped with specific instruments for various scientific and technological missions. These include communications satellites like Starlink; space stations such as the ISS; scientific satellites like the Hubble; Earth observation satellites from companies like Planet Labs, Umbra, and HawkEye 360; GPS; miniature CubeSats for education and research; and military/defense satellites.

Loading next visibility...
Identifier
63812, 2025-092J
Orbit
LEO
Country
Flag of USUS
Related business
Manufacturer
SpaceX/Seattle
Mission
Operational Commercial Communications
Bus & Motor
STARLINK V2MO, Unknown motor
Mass
575 kg wet, ~530 kg dry
Launch date (UTC)
2025-05-04 (6 months ago)
Launch vehicle
FALCON 9
Launch site
Air Force Eastern Test Range (AFETR)
Object type
Payload
Rocket body
Debris
Shape & HBR
Box + 2 Pan, 17.7 m
Radar Cross Section
36.964 m², Large (>1 m²)

Expand to show TLE details & history
Last TLE update: 9 hours ago

TLE from 9 hours ago
0 STARLINK-34101
1 63812U 25092J   25298.10731056  .00051160  00000-0  18538-2 0  9997
2 63812  43.0027 217.8504 0001634 256.7237 103.3433 15.27614780 27828
Epoch: 2025-10-25T02:34Z
TLE epoch observation values (Epoch: 2025-10-25T02:34:31.632Z)
Latitude
0.00002°
Longitude
145.47601°
Altitude
482.98 km
Speed
7.626 km/s
True Right ascension
14h 31m 24s
True Declination
0° 00' 00"
Sunlit
Object was in daylight at epoch
Visualization orbit readout
Latitude
Unknown
Longitude
Unknown
Altitude
Unknown
Speed
Unknown
Apparent Right ascension
Unknown
Apparent Declination
Unknown
Sunlit
N/A
Visualization observer readout
Local Sidereal Time
06:55:36
Azimuth
Unknown
Elevation
Unknown
Doppler factor
Unknown
Orbital elements
Apogee altitude
486.011 km
Perigee altitude
483.768 km
Semi-major axis
6,863.027 km
Eccentricity
0.00016
Inclination
43.0027°
RAAN
217.8504°
Arg. of periapsis
256.7237°
True anomaly
103.36152°
Mean anomaly
103.3433°
Eccentric anomaly
103.35241°
Mean motion
3.81742 °/min
Orbital period
94.3 mins
BSTAR
0.0018538
Loading maneuver chart data...
Computing Atmospheric mass density...
Loading historical data...
Loading historical data...
Loading historical data...
Loading historical data...
Loading historical data...
Loading historical data...
Loading historical data...

Documentation

Showing up to 5 results
|